Regional Weather Roundup
Issued by NWS Newport/Morehead, NC

Current Version | Previous Version | Text Only | Print | Product List | Glossary Off
Versions: 1 2 3 4 5 6 7 8 9 10 11 12 13 14 15 16 17 18 19 20 21 22 23 24 25 26 27 28 29 30 31 32 33 34 35 36 37 38 39 40 41 42 43 44 45 46 47 48 49 50
544 ASUS42 KMHX 171125 RWRMHX WEATHER ROUNDUP FOR EASTERN NORTH CAROLINA NATIONAL WEATHER SERVICE NEWPORT/MOREHEAD CITY NC 600 AM EST TUE JAN 17 2017 NOTE: "FAIR" INDICATES FEW OR NO CLOUDS BELOW 12,000 FEET WITH NO SIGNIFICANT WEATHER AND/OR OBSTRUCTIONS TO VISIBILITY NCZ015>017-031-032-045>047-102-103-171200- NORTH COAST CITY SKY/WX TMP DP RH WIND PRES REMARKS EDENTON CLOUDY 46 42 86 CALM 30.26S ELIZABETH CITY CLOUDY 42 40 92 SW3 30.27R KITTY HAWK NOT AVBL MANTEO MOCLDY 42 42 99 CALM 30.27R $$ NCZ045>047-081-094-103-104-171200- CENTRAL COAST CITY SKY/WX TMP DP RH WIND PRES REMARKS FRISCO CLOUDY 48 44 86 VRB3 30.26S $$ NCZ095-097-098-100-101-171200- SOUTHERN COAST CITY SKY/WX TMP DP RH WIND PRES REMARKS BEAUFORT CLOUDY 47 43 86 CALM 30.26S CEDAR ISLAND NOT AVBL JACKSONVILLE PTCLDY 47 45 93 NE3 30.25S PINEY ISLAND CLOUDY N/A N/A N/A CALM 30.25S WILMINGTON CLOUDY 48 47 96 CALM 30.24F $$ NCZ011>013-027>030-043-044-078>080-089-090>093-098-171200- COASTAL PLAIN CITY SKY/WX TMP DP RH WIND PRES REMARKS AHOSKIE N/A 44 41 91 CALM 30.26R CLINTON MOCLDY 45 45 99 CALM 30.27R ELIZABETHTOWN CLOUDY 49 48 98 CALM 30.25S GOLDSBORO MOCLDY 45 45 100 CALM 30.24R GREENVILLE CLOUDY 46 45 93 CALM 30.26S HAVELOCK CLOUDY 47 43 86 CALM 30.26F KENANSVILLE MOCLDY 45 45 100 CALM 30.25S KINSTON CLOUDY 46 45 95 CALM 30.26S NEW BERN MOCLDY 45 41 86 CALM 30.27S RICHLANDS MOCLDY 46 44 93 E3 30.26S ROCKY MOUNT CLOUDY 47 45 93 CALM 30.26R WASHINGTON CLOUDY 45 40 83 CALM 30.26F WHITEVILLE CLOUDY 50 47 89 CALM 30.24S $$ AMZ130-135-150-152-154-156-158-170-250-252-270-ANZ085-086-088-633-658-670-171200- MARINE OBSERVATIONS STATION/POSITION TIME TEMP WIND PRES WAVE SWELL AIR SEA DIR/SP/G HT/PER HT/PER (UTC) (F) (DEG/KT/KT) (MB) (FT/S) (FT/S) CHESAPEAKE LIGHT NOT AVBL 64 E VA BEACH 1050 53 54 350/ 6/ 8 1024.2 2/ 9 2/ 9 DUCK 1100 44 44 310/ 3/ 3 1023.9 2 E DUCK 1100 44 N/A 2/10 OREGON INLET 1054 45 48 360/ 2/ 5 1024.6 13E OREGON INLT NOT AVBL HATTERAS CG 1100 47 52 30/ 3/ 5 1024.1 DIAMOND BUOY 1050 56 72 20/ 8/ 10 1024.3 3/ 8 2/ 8 CAPE LOOKOUT 1100 49 10/ 3/ 3 1024.0 BEAUFORT LAB 1100 47 49 20/ 3/ 6 1023.4 30 SE NEW RVR IN 1108 59 61 80/ 6/ 8 1024.2 30 SE NEW RVR IN 1113 62 N/A 3/ 8 27 SE WRIGHTSVLE 1108 64 68 110/ 8/ 10 1023.7 5 SE WRIGHTSVLE 1108 52 30/ 10/ 12 1024.0 225 S CAPE HAT 1050 71 72 200/ 12/ 16 1025.2 3/ 9 3/ 9 41 SE CHARLESTON 1050 70 70 180/ 4/ 4 1023.7 3/ 9 3/ 9 $$

USA.gov is the U.S. government's official web portal to all federal, state and local government web resources and services.